Weather History for FAEL - July, 2013

Change the Weather History Date:

Saturday, July 13, 2013

  Actual Average Record
Temperature  
Mean Temperature 72 °F -  
Max Temperature 85 °F 67 °F 86 °F (1999)
Min Temperature 59 °F 49 °F 44 °F (1997)
Cooling Degree Days 7    
Growing Degree Days 22 (Base 50)    
Moisture  
Dew Point 48 °F    
Average Humidity 50    
Maximum Humidity 88    
Minimum Humidity 19    
Precipitation  
Precipitation 0.00 in 0.08 in - ()
Sea Level Pressure  
Sea Level Pressure 30.03 in    
Wind  
Wind Speed 10 mph ()    
Max Wind Speed 22 mph    
Max Gust Speed -    
Visibility 8.8 miles    
Events      
Averages and records for this station are not official NWS values.
T = Trace of Precipitation, MM = Missing Value Source: Averaged Metar Reports

Daily Weather History Graph

Daily Weather History Graph

Search for Another Location

Airport or City:

Trip Planner

Search our weather history database for the weather conditions in past years. The results will help you decide how hot, cold, wet, or windy it might be!

Date:

Astronomy

Jul. 13, 2013 Rise Set
Actual Time 7:10 AM SAST 5:18 PM SAST
Civil Twilight 6:43 AM SAST 5:45 PM SAST
Nautical Twilight 6:12 AM SAST 6:16 PM SAST
Astronomical Twilight 5:42 AM SAST 6:46 PM SAST
Moon 9:53 AM SAST (7/13) 10:15 PM SAST (7/13)
Length of Visible Light 11h 02m
Length of Day
10h 08m
Waxing Crescent, 23% of the Moon is Illuminated
Jul 13
Waxing Crescent
Jul 16
First Quarter
Jul 22
Full
Jul 29
Last Quarter
Aug 6
New

Hourly Weather History & Observations

Time (SAST) Temp. Heat Index Dew Point Humidity Pressure Visibility Wind Dir Wind Speed Gust Speed Precip Events Conditions
2:00 AM 67 °F - 40 °F 25% 30.05 in 12 mi NNW 17.9 mph - -  
5:00 AM 64.4 °F - 37.4 °F 37% 30.01 in - NW 4.6 mph - N/A   Clear
6:00 AM 62.6 °F - 37.4 °F 39% 30.01 in - NW 13.8 mph - N/A   Clear
7:00 AM 64.4 °F - 37.4 °F 37% 30.01 in - NW 12.7 mph - N/A   Clear
8:00 AM 65 °F - 37 °F 25% 30.03 in 19 mi NNW 11.5 mph - -  
8:00 AM 64.4 °F - 37.4 °F 37% 30.04 in - NNW 11.5 mph - N/A   Clear
9:00 AM 66.2 °F - 39.2 °F 37% 30.04 in - NNW 12.7 mph - N/A   Clear
10:00 AM 71.6 °F - 42.8 °F 35% 30.04 in - North 8.1 mph - N/A   Clear
10:08 AM 73.4 °F - 42.8 °F 33% 30.04 in - North 8.1 mph - N/A   Clear
11:00 AM 77.0 °F - 44.6 °F 32% 30.04 in - North 8.1 mph - N/A   Clear
11:38 AM 82.4 °F - 44.6 °F 26% 30.04 in - NE 6.9 mph - N/A   Clear
12:00 PM 82.4 °F - 44.6 °F 26% 30.04 in - NNE 5.8 mph - N/A   Clear
1:00 PM 86.0 °F - 39.2 °F 19% 29.98 in - North 4.6 mph - N/A   Clear
2:00 PM 80 °F - 55 °F 31% 29.97 in 25 mi SE 8.9 mph - -   Scattered Clouds
2:00 PM 80.6 °F 80.3 °F 53.6 °F 39% 29.98 in - SE 4.6 mph - N/A   Clear
2:08 PM 73.4 °F - 55.4 °F 53% 29.98 in - South 11.5 mph - N/A   Clear
3:00 PM 73.4 °F - 51.8 °F 47% 30.01 in - South 11.5 mph - N/A   Clear
4:00 PM 69.8 °F - 55.4 °F 60% 30.01 in - South 8.1 mph - N/A   Clear
4:30 PM 68.0 °F - 55.4 °F 64% 30.01 in - SSW 10.4 mph - N/A   Clear
5:00 PM 66.2 °F - 57.2 °F 73% 30.04 in - SSW 11.5 mph - N/A   Clear
6:00 PM 62.6 °F - 59.0 °F 88% 30.04 in - WSW 9.2 mph - N/A   Clear
7:00 PM 60.8 °F - 57.2 °F 88% 30.06 in 6.2 mi WSW 9.2 mph - N/A   Scattered Clouds
7:08 PM 60.8 °F - 57.2 °F 88% 30.09 in 6.2 mi WSW 10.4 mph - N/A   Mostly Cloudy
7:37 PM 59.0 °F - 55.4 °F 88% 30.09 in 6.2 mi WSW 12.7 mph - N/A   Scattered Clouds
8:00 PM 59 °F - 55 °F 84% 30.11 in 6 mi WSW 22.4 mph - -   Scattered Clouds
8:00 PM 59.0 °F - 55.4 °F 88% 30.09 in 6.2 mi WSW 11.5 mph - N/A   Partly Cloudy